Simultaneous Nadir Overpasses (SNOs) Predictions

Prediction of SNOs between GOES-16 and METOP-B Satellite Orbit:

Table of predicted SNOs for the next 14.0 days since TLE Epoch: 6/13/2025
Index Date Time (GOES-16) GOES-16 Lat,Lon METOP-B Lat,Lon Distance(km) Time Diff (sec)
1 06/15/2025 04:04:51 -0.03,-104.72 0.07,-104.36 41.11 80
2 06/16/2025 16:21:05 0.03,-104.73 0.97,-108.95 481.57 80
3 06/17/2025 16:03:08 0.02,-104.72 -0.15,-103.98 84.71 80
4 06/19/2025 04:22:10 -0.02,-104.69 -0.91,-108.60 446.38 80
5 06/20/2025 03:58:53 -0.02,-104.68 0.22,-103.63 119.85 80
6 06/21/2025 16:17:47 0.02,-104.69 0.81,-108.22 402.95 80
7 06/22/2025 15:59:50 0.02,-104.68 -0.32,-103.25 163.04 80
8 06/24/2025 04:18:52 -0.01,-104.64 -0.72,-107.87 368.60 80
9 06/25/2025 03:55:33 -0.00,-104.62 0.35,-102.89 197.18 80
10 06/26/2025 16:14:29 -0.00,-104.63 0.61,-107.50 326.01 80
11 06/27/2025 15:56:30 -0.00,-104.62 -0.47,-102.51 240.19 80
